Year,Month,Day,Hour,Minute,Value (Times are PST for temperature in C)
2011,01,19,00,00,-0.80
2011,01,19,00,01,-0.80
2011,01,19,00,02,-0.80
2011,01,19,00,03,-0.80
2011,01,19,00,04,-0.80
2011,01,19,00,05,-0.80
2011,01,19,00,06,-0.70
2011,01,19,00,07,-0.70
2011,01,19,00,08,-0.70
2011,01,19,00,09,-0.70
2011,01,19,00,10,-0.60
2011,01,19,00,11,-0.60
2011,01,19,00,12,-0.60
2011,01,19,00,13,-0.50
2011,01,19,00,14,-0.50
2011,01,19,00,15,-0.40
2011,01,19,00,16,-0.40
2011,01,19,00,17,-0.40
2011,01,19,00,18,-0.40
2011,01,19,00,19,-0.50
2011,01,19,00,20,-0.50
2011,01,19,00,21,-0.50
2011,01,19,00,22,-0.50
2011,01,19,00,23,-0.60
2011,01,19,00,24,-0.60
2011,01,19,00,25,-0.50
2011,01,19,00,26,-0.50
2011,01,19,00,27,-0.50
2011,01,19,00,28,-0.50
2011,01,19,00,29,-0.50
2011,01,19,00,30,-0.40
2011,01,19,00,31,-0.40
2011,01,19,00,32,-0.40
2011,01,19,00,33,-0.40
2011,01,19,00,34,-0.40
2011,01,19,00,35,-0.40
2011,01,19,00,36,-0.40
2011,01,19,00,37,-0.40
2011,01,19,00,38,-0.40
2011,01,19,00,39,-0.40
2011,01,19,00,40,-0.40
2011,01,19,00,41,-0.40
2011,01,19,00,42,-0.40
2011,01,19,00,43,-0.40
2011,01,19,00,44,-0.40
2011,01,19,00,45,-0.30
2011,01,19,00,46,-0.30
2011,01,19,00,47,-0.30
2011,01,19,00,48,-0.30
2011,01,19,00,49,-0.30
2011,01,19,00,50,-0.30
2011,01,19,00,51,-0.30
2011,01,19,00,52,-0.20
2011,01,19,00,53,-0.20
2011,01,19,00,54,-0.20
2011,01,19,00,55,-0.20
2011,01,19,00,56,-0.20
2011,01,19,00,57,-0.20
2011,01,19,00,58,-0.20
2011,01,19,00,59,-0.20
2011,01,19,01,00,-0.20
2011,01,19,01,01,-0.20
2011,01,19,01,02,-0.20
2011,01,19,01,03,-0.30
2011,01,19,01,04,-0.30
2011,01,19,01,05,-0.30
2011,01,19,01,06,-0.30
2011,01,19,01,07,-0.30
2011,01,19,01,08,-0.30
2011,01,19,01,09,-0.30
2011,01,19,01,10,-0.30
2011,01,19,01,11,-0.30
2011,01,19,01,12,-0.30
2011,01,19,01,13,-0.30
2011,01,19,01,14,-0.30
2011,01,19,01,15,-0.30
2011,01,19,01,16,-0.30
2011,01,19,01,17,-0.40
2011,01,19,01,18,-0.40
2011,01,19,01,19,-0.40
2011,01,19,01,20,-0.40
2011,01,19,01,21,-0.40
2011,01,19,01,22,-0.40
2011,01,19,01,23,-0.40
2011,01,19,01,24,-0.40
2011,01,19,01,25,-0.40
2011,01,19,01,26,-0.50
2011,01,19,01,27,-0.50
2011,01,19,01,28,-0.50
2011,01,19,01,29,-0.50
2011,01,19,01,30,-0.50
2011,01,19,01,31,-0.60
2011,01,19,01,32,-0.60
2011,01,19,01,33,-0.60
2011,01,19,01,34,-0.60
2011,01,19,01,35,-0.60
2011,01,19,01,36,-0.60
2011,01,19,01,37,-0.60
2011,01,19,01,38,-0.60
2011,01,19,01,39,-0.60
2011,01,19,01,40,-0.60
2011,01,19,01,41,-0.70
2011,01,19,01,42,-0.70
2011,01,19,01,43,-0.70
2011,01,19,01,44,-0.70
2011,01,19,01,45,-0.70
2011,01,19,01,46,-0.70
2011,01,19,01,47,-0.80
2011,01,19,01,48,-0.80
2011,01,19,01,49,-0.80
2011,01,19,01,50,-0.80
2011,01,19,01,51,-0.80
2011,01,19,01,52,-0.80
2011,01,19,01,53,-0.80
2011,01,19,01,54,-0.90
2011,01,19,01,55,-0.90
2011,01,19,01,56,-0.90
2011,01,19,01,57,-0.90
2011,01,19,01,58,-0.90
2011,01,19,01,59,-1.00
2011,01,19,02,00,-1.00
2011,01,19,02,01,-1.00
2011,01,19,02,02,-1.00
2011,01,19,02,03,-1.10
2011,01,19,02,04,-1.10
2011,01,19,02,05,-1.10
2011,01,19,02,06,-1.10
2011,01,19,02,07,-1.10
2011,01,19,02,08,-1.20
2011,01,19,02,09,-1.20
2011,01,19,02,10,-1.20
2011,01,19,02,11,-1.20
2011,01,19,02,12,-1.20
2011,01,19,02,13,-1.20
2011,01,19,02,14,-1.20
2011,01,19,02,15,-1.20
2011,01,19,02,16,-1.20
2011,01,19,02,17,-1.20
2011,01,19,02,18,-1.20
2011,01,19,02,19,-1.20
2011,01,19,02,20,-1.30
2011,01,19,02,21,-1.20
2011,01,19,02,22,-1.20
2011,01,19,02,23,-1.30
2011,01,19,02,24,-1.30
2011,01,19,02,25,-1.30
2011,01,19,02,26,-1.30
2011,01,19,02,27,-1.30
2011,01,19,02,28,-1.30
2011,01,19,02,29,-1.30
2011,01,19,02,30,-1.30
2011,01,19,02,31,-1.40
2011,01,19,02,32,-1.40
2011,01,19,02,33,-1.40
2011,01,19,02,34,-1.40
2011,01,19,02,35,-1.40
2011,01,19,02,36,-1.40
2011,01,19,02,37,-1.40
2011,01,19,02,38,-1.50
2011,01,19,02,39,-1.50
2011,01,19,02,40,-1.50
2011,01,19,02,41,-1.50
2011,01,19,02,42,-1.50
2011,01,19,02,43,-1.60
2011,01,19,02,44,-1.60
2011,01,19,02,45,-1.60
2011,01,19,02,46,-1.60
2011,01,19,02,47,-1.60
2011,01,19,02,48,-1.60
2011,01,19,02,49,-1.60
2011,01,19,02,50,-1.70
2011,01,19,02,51,-1.70
2011,01,19,02,52,-1.70
2011,01,19,02,53,-1.70
2011,01,19,02,54,-1.70
2011,01,19,02,55,-1.70
2011,01,19,02,56,-1.70
2011,01,19,02,57,-1.70
2011,01,19,02,58,-1.70
2011,01,19,02,59,-1.70
2011,01,19,03,00,-1.70
2011,01,19,03,01,-1.70
2011,01,19,03,02,-1.70
2011,01,19,03,03,-1.70
2011,01,19,03,04,-1.70
2011,01,19,03,05,-1.70
2011,01,19,03,06,-1.80
2011,01,19,03,07,-1.80
2011,01,19,03,08,-1.80
2011,01,19,03,09,-1.80
2011,01,19,03,10,-1.80
2011,01,19,03,11,-1.80
2011,01,19,03,12,-1.80
2011,01,19,03,13,-1.80
2011,01,19,03,14,-1.80
2011,01,19,03,15,-1.80
2011,01,19,03,16,-1.90
2011,01,19,03,17,-1.90
2011,01,19,03,18,-1.90
2011,01,19,03,19,-1.90
2011,01,19,03,20,-1.90
2011,01,19,03,21,-1.90
2011,01,19,03,22,-1.90
2011,01,19,03,23,-1.90
2011,01,19,03,24,-2.00
2011,01,19,03,25,-2.00
2011,01,19,03,26,-2.00
2011,01,19,03,27,-2.00
2011,01,19,03,28,-2.00
2011,01,19,03,29,-2.00
2011,01,19,03,30,-2.00
2011,01,19,03,31,-2.00
2011,01,19,03,32,-2.10
2011,01,19,03,33,-2.10
2011,01,19,03,34,-2.10
2011,01,19,03,35,-2.10
2011,01,19,03,36,-2.10
2011,01,19,03,37,-2.10
2011,01,19,03,38,-2.10
2011,01,19,03,39,-2.10
2011,01,19,03,40,-2.10
2011,01,19,03,41,-2.20
2011,01,19,03,42,-2.20
2011,01,19,03,43,-2.20
2011,01,19,03,44,-2.20
2011,01,19,03,45,-2.20
2011,01,19,03,46,-2.20
2011,01,19,03,47,-2.20
2011,01,19,03,48,-2.20
2011,01,19,03,49,-2.20
2011,01,19,03,50,-2.20
2011,01,19,03,51,-2.20
2011,01,19,03,52,-2.10
2011,01,19,03,53,-2.10
2011,01,19,03,54,-2.10
2011,01,19,03,55,-2.00
2011,01,19,03,56,-2.00
2011,01,19,03,57,-2.00
2011,01,19,03,58,-2.00
2011,01,19,03,59,-1.90
2011,01,19,04,00,-1.90
2011,01,19,04,01,-1.90
2011,01,19,04,02,-1.90
2011,01,19,04,03,-1.90
2011,01,19,04,04,-2.00
2011,01,19,04,05,-2.00
2011,01,19,04,06,-2.00
2011,01,19,04,07,-2.00
2011,01,19,04,08,-2.00
2011,01,19,04,09,-2.10
2011,01,19,04,10,-2.10
2011,01,19,04,11,-2.10
2011,01,19,04,12,-2.10
2011,01,19,04,13,-2.10
2011,01,19,04,14,-2.10
2011,01,19,04,15,-2.20
2011,01,19,04,16,-2.20
2011,01,19,04,17,-2.20
2011,01,19,04,18,-2.20
2011,01,19,04,19,-2.20
2011,01,19,04,20,-2.20
2011,01,19,04,21,-2.20
2011,01,19,04,22,-2.20
2011,01,19,04,23,-2.30
2011,01,19,04,24,-2.30
2011,01,19,04,25,-2.30
2011,01,19,04,26,-2.30
2011,01,19,04,27,-2.30
2011,01,19,04,28,-2.30
2011,01,19,04,29,-2.30
2011,01,19,04,30,-2.30
2011,01,19,04,31,-2.30
2011,01,19,04,32,-2.30
2011,01,19,04,33,-2.30
2011,01,19,04,34,-2.30
2011,01,19,04,35,-2.40
2011,01,19,04,36,-2.40
2011,01,19,04,37,-2.40
2011,01,19,04,38,-2.40
2011,01,19,04,39,-2.40
2011,01,19,04,40,-2.40
2011,01,19,04,41,-2.40
2011,01,19,04,42,-2.40
2011,01,19,04,43,-2.40
2011,01,19,04,44,-2.40
2011,01,19,04,45,-2.40
2011,01,19,04,46,-2.40
2011,01,19,04,47,-2.40
2011,01,19,04,48,-2.40
2011,01,19,04,49,-2.40
2011,01,19,04,50,-2.40
2011,01,19,04,51,-2.40
2011,01,19,04,52,-2.40
2011,01,19,04,53,-2.40
2011,01,19,04,54,-2.30
2011,01,19,04,55,-2.30
2011,01,19,04,56,-2.30
2011,01,19,04,57,-2.40
2011,01,19,04,58,-2.40
2011,01,19,04,59,-2.40
2011,01,19,05,00,-2.40
2011,01,19,05,01,-2.40
2011,01,19,05,02,-2.40
2011,01,19,05,03,-2.40
2011,01,19,05,04,-2.40
2011,01,19,05,05,-2.30
2011,01,19,05,06,-2.30
2011,01,19,05,07,-2.30
2011,01,19,05,08,-2.40
2011,01,19,05,09,-2.40
2011,01,19,05,10,-2.40
2011,01,19,05,11,-2.40
2011,01,19,05,12,-2.40
2011,01,19,05,13,-2.40
2011,01,19,05,14,-2.40
2011,01,19,05,15,-2.40
2011,01,19,05,16,-2.40
2011,01,19,05,17,-2.40
2011,01,19,05,18,-2.40
2011,01,19,05,19,-2.40
2011,01,19,05,20,-2.40
2011,01,19,05,21,-2.40
2011,01,19,05,22,-2.40
2011,01,19,05,23,-2.40
2011,01,19,05,24,-2.40
2011,01,19,05,25,-2.50
2011,01,19,05,26,-2.50
2011,01,19,05,27,-2.50
2011,01,19,05,28,-2.50
2011,01,19,05,29,-2.50
2011,01,19,05,30,-2.50
2011,01,19,05,31,-2.50
2011,01,19,05,32,-2.40
2011,01,19,05,33,-2.40
2011,01,19,05,34,-2.40
2011,01,19,05,35,-2.30
2011,01,19,05,36,-2.30
2011,01,19,05,37,-2.30
2011,01,19,05,38,-2.30
2011,01,19,05,39,-2.30
2011,01,19,05,40,-2.30
2011,01,19,05,41,-2.30
2011,01,19,05,42,-2.30
2011,01,19,05,43,-2.30
2011,01,19,05,44,-2.30
2011,01,19,05,45,-2.30
2011,01,19,05,46,-2.30
2011,01,19,05,47,-2.30
2011,01,19,05,48,-2.30
2011,01,19,05,49,-2.40
2011,01,19,05,50,-2.40
2011,01,19,05,51,-2.40
2011,01,19,05,52,-2.40
2011,01,19,05,53,-2.30
2011,01,19,05,54,-2.30
2011,01,19,05,55,-2.30
2011,01,19,05,56,-2.40
2011,01,19,05,57,-2.40
2011,01,19,05,58,-2.40
2011,01,19,05,59,-2.40
2011,01,19,06,00,-2.40
2011,01,19,06,01,-2.40
2011,01,19,06,02,-2.40
2011,01,19,06,03,-2.40
2011,01,19,06,04,-2.40
2011,01,19,06,05,-2.50
2011,01,19,06,06,-2.50
2011,01,19,06,07,-2.50
2011,01,19,06,08,-2.50
2011,01,19,06,09,-2.50
2011,01,19,06,10,-2.50
2011,01,19,06,11,-2.50
2011,01,19,06,12,-2.50
2011,01,19,06,13,-2.50
2011,01,19,06,14,-2.50
2011,01,19,06,15,-2.50
2011,01,19,06,16,-2.50
2011,01,19,06,17,-2.50
2011,01,19,06,18,-2.50
2011,01,19,06,19,-2.50
2011,01,19,06,20,-2.50
2011,01,19,06,21,-2.50
2011,01,19,06,22,-2.50
2011,01,19,06,23,-2.50
2011,01,19,06,24,-2.50
2011,01,19,06,25,-2.50
2011,01,19,06,26,-2.50
2011,01,19,06,27,-2.40
2011,01,19,06,28,-2.40
2011,01,19,06,29,-2.40
2011,01,19,06,30,-2.40
2011,01,19,06,31,-2.40
2011,01,19,06,32,-2.40
2011,01,19,06,33,-2.40
2011,01,19,06,34,-2.40
2011,01,19,06,35,-2.40
2011,01,19,06,36,-2.40
2011,01,19,06,37,-2.40
2011,01,19,06,38,-2.40
2011,01,19,06,39,-2.40
2011,01,19,06,40,-2.40
2011,01,19,06,41,-2.40
2011,01,19,06,42,-2.40
2011,01,19,06,43,-2.30
2011,01,19,06,44,-2.30
2011,01,19,06,45,-2.30
2011,01,19,06,46,-2.30
2011,01,19,06,47,-2.30
2011,01,19,06,48,-2.30
2011,01,19,06,49,-2.30
2011,01,19,06,50,-2.30
2011,01,19,06,51,-2.30
2011,01,19,06,52,-2.30
2011,01,19,06,53,-2.30
2011,01,19,06,54,-2.30
2011,01,19,06,55,-2.30
2011,01,19,06,56,-2.30
2011,01,19,06,57,-2.30
2011,01,19,06,58,-2.30
2011,01,19,06,59,-2.30
2011,01,19,07,00,-2.30
2011,01,19,07,01,-2.30
2011,01,19,07,02,-2.30
2011,01,19,07,03,-2.30
2011,01,19,07,04,-2.30
2011,01,19,07,05,-2.30
2011,01,19,07,06,-2.30
2011,01,19,07,07,-2.30
2011,01,19,07,08,-2.30
2011,01,19,07,09,-2.30
2011,01,19,07,10,-2.20
2011,01,19,07,11,-2.20
2011,01,19,07,12,-2.20
2011,01,19,07,13,-2.20
2011,01,19,07,14,-2.20
2011,01,19,07,15,-2.20
2011,01,19,07,16,-2.20
2011,01,19,07,17,-2.20
2011,01,19,07,18,-2.20
2011,01,19,07,19,-2.20
2011,01,19,07,20,-2.20
2011,01,19,07,21,-2.20
2011,01,19,07,22,-2.20
2011,01,19,07,23,-2.20
2011,01,19,07,24,-2.20
2011,01,19,07,25,-2.20
2011,01,19,07,26,-2.20
2011,01,19,07,27,-2.20
2011,01,19,07,28,-2.20
2011,01,19,07,29,-2.20
2011,01,19,07,30,-2.20
2011,01,19,07,31,-2.20
2011,01,19,07,32,-2.20
2011,01,19,07,33,-2.20
2011,01,19,07,34,-2.20
2011,01,19,07,35,-2.20
2011,01,19,07,36,-2.20
2011,01,19,07,37,-2.30
2011,01,19,07,38,-2.30
2011,01,19,07,39,-2.30
2011,01,19,07,40,-2.30
2011,01,19,07,41,-2.30
2011,01,19,07,42,-2.30
2011,01,19,07,43,-2.30
2011,01,19,07,44,-2.40
2011,01,19,07,45,-2.40
2011,01,19,07,46,-2.40
2011,01,19,07,47,-2.40
2011,01,19,07,48,-2.40
2011,01,19,07,49,-2.40
2011,01,19,07,50,-2.40
2011,01,19,07,51,-2.40
2011,01,19,07,52,-2.30
2011,01,19,07,53,-2.30
2011,01,19,07,54,-2.30
2011,01,19,07,55,-2.30
2011,01,19,07,56,-2.30
2011,01,19,07,57,-2.30
2011,01,19,07,58,-2.30
2011,01,19,07,59,-2.30
2011,01,19,08,00,-2.30
2011,01,19,08,01,-2.40
2011,01,19,08,02,-2.40
2011,01,19,08,03,-2.40
2011,01,19,08,04,-2.40
2011,01,19,08,05,-2.40
2011,01,19,08,06,-2.40
2011,01,19,08,07,-2.40
2011,01,19,08,08,-2.40
2011,01,19,08,09,-2.40
2011,01,19,08,10,-2.40
2011,01,19,08,11,-2.30
2011,01,19,08,12,-2.30
2011,01,19,08,13,-2.30
2011,01,19,08,14,-2.30
2011,01,19,08,15,-2.30
2011,01,19,08,16,-2.30
2011,01,19,08,17,-2.30
2011,01,19,08,18,-2.40
2011,01,19,08,19,-2.40
2011,01,19,08,20,-2.40
2011,01,19,08,21,-2.40
2011,01,19,08,22,-2.40
2011,01,19,08,23,-2.50
2011,01,19,08,24,-2.50
2011,01,19,08,25,-2.50
2011,01,19,08,26,-2.60
2011,01,19,08,27,-2.60
2011,01,19,08,28,-2.60
2011,01,19,08,29,-2.60
2011,01,19,08,30,-2.60
2011,01,19,08,31,-2.60
2011,01,19,08,32,-2.60
2011,01,19,08,33,-2.60
2011,01,19,08,34,-2.60
2011,01,19,08,35,-2.70
2011,01,19,08,36,-2.70
2011,01,19,08,37,-2.70
2011,01,19,08,38,-2.70
2011,01,19,08,39,-2.70
2011,01,19,08,40,-2.70
2011,01,19,08,41,-2.70
2011,01,19,08,42,-2.70
2011,01,19,08,43,-2.70
2011,01,19,08,44,-2.70
2011,01,19,08,45,-2.70
2011,01,19,08,46,-2.70
2011,01,19,08,47,-2.70
2011,01,19,08,48,-2.70
2011,01,19,08,49,-2.70
2011,01,19,08,50,-2.70
2011,01,19,08,51,-2.70
2011,01,19,08,52,-2.80
2011,01,19,08,53,-2.70
2011,01,19,08,54,-2.80
2011,01,19,08,55,-2.70
2011,01,19,08,56,-2.70
2011,01,19,08,57,-2.70
2011,01,19,08,58,-2.70
2011,01,19,08,59,-2.70
2011,01,19,09,00,-2.70
2011,01,19,09,01,-2.60
2011,01,19,09,02,-2.60
2011,01,19,09,03,-2.60
2011,01,19,09,04,-2.60
2011,01,19,09,05,-2.50
2011,01,19,09,06,-2.40
2011,01,19,09,07,-2.40
2011,01,19,09,08,-2.30
2011,01,19,09,09,-2.20
2011,01,19,09,10,-2.20
2011,01,19,09,11,-2.10
2011,01,19,09,12,-2.10
2011,01,19,09,13,-2.00
2011,01,19,09,14,-1.90
2011,01,19,09,15,-1.80
2011,01,19,09,16,-1.80
2011,01,19,09,17,-1.80
2011,01,19,09,18,-1.70
2011,01,19,09,19,-1.70
2011,01,19,09,20,-1.70
2011,01,19,09,21,-1.70
2011,01,19,09,22,-1.60
2011,01,19,09,23,-1.60
2011,01,19,09,24,-1.60
2011,01,19,09,25,-1.60
2011,01,19,09,26,-1.60
2011,01,19,09,27,-1.60
2011,01,19,09,28,-1.60
2011,01,19,09,29,-1.60
2011,01,19,09,30,-1.60
2011,01,19,09,31,-1.60
2011,01,19,09,32,-1.70
2011,01,19,09,33,-1.70
2011,01,19,09,34,-1.70
2011,01,19,09,35,-1.70
2011,01,19,09,36,-1.70
2011,01,19,09,37,-1.70
2011,01,19,09,38,-1.60
2011,01,19,09,39,-1.60
2011,01,19,09,40,-1.60
2011,01,19,09,41,-1.50
2011,01,19,09,42,-1.40
2011,01,19,09,43,-1.40
2011,01,19,09,44,-1.30
2011,01,19,09,45,-1.30
2011,01,19,09,46,-1.20
2011,01,19,09,47,-1.20
2011,01,19,09,48,-1.10
2011,01,19,09,49,-1.10
2011,01,19,09,50,-1.10
2011,01,19,09,51,-1.10
2011,01,19,09,52,-1.10
2011,01,19,09,53,-1.10
2011,01,19,09,54,-1.00
2011,01,19,09,55,-1.00
2011,01,19,09,56,-0.90
2011,01,19,09,57,-0.90
2011,01,19,09,58,-0.90
2011,01,19,09,59,-0.80
2011,01,19,10,00,-0.80
2011,01,19,10,01,-0.80
2011,01,19,10,02,-0.70
2011,01,19,10,03,-0.70
2011,01,19,10,04,-0.70
2011,01,19,10,05,-0.60
2011,01,19,10,06,-0.60
2011,01,19,10,07,-0.60
2011,01,19,10,08,-0.60
2011,01,19,10,09,-0.50
2011,01,19,10,10,-0.50
2011,01,19,10,11,-0.50
2011,01,19,10,12,-0.50
2011,01,19,10,13,-0.40
2011,01,19,10,14,-0.40
2011,01,19,10,15,-0.40
2011,01,19,10,16,-0.50
2011,01,19,10,17,-0.50
2011,01,19,10,18,-0.50
2011,01,19,10,19,-0.50
2011,01,19,10,20,-0.50
2011,01,19,10,21,-0.40
2011,01,19,10,22,-0.40
2011,01,19,10,23,-0.40
2011,01,19,10,24,-0.30
2011,01,19,10,25,-0.30
2011,01,19,10,26,-0.20
2011,01,19,10,27,-0.20
2011,01,19,10,28,-0.20
2011,01,19,10,29,-0.10
2011,01,19,10,30,-0.10
2011,01,19,10,31,-0.10
2011,01,19,10,32,0.00
2011,01,19,10,33,0.00
2011,01,19,10,34,0.10
2011,01,19,10,35,0.10
2011,01,19,10,36,0.10
2011,01,19,10,37,0.20
2011,01,19,10,38,0.20
2011,01,19,10,39,0.30
2011,01,19,10,40,0.30
2011,01,19,10,41,0.30
2011,01,19,10,42,0.40
2011,01,19,10,43,0.40
2011,01,19,10,44,0.50
2011,01,19,10,45,0.50
2011,01,19,10,46,0.60
2011,01,19,10,47,0.60
2011,01,19,10,48,0.60
2011,01,19,10,49,0.60
2011,01,19,10,50,0.70
2011,01,19,10,51,0.70
2011,01,19,10,52,0.70
2011,01,19,10,53,0.80
2011,01,19,10,54,0.80
2011,01,19,10,55,0.80
2011,01,19,10,56,0.90
2011,01,19,10,57,0.90
2011,01,19,10,58,1.00
2011,01,19,10,59,1.00
2011,01,19,11,00,1.00
2011,01,19,11,01,1.10
2011,01,19,11,02,1.20
2011,01,19,11,03,1.20
2011,01,19,11,04,1.30
2011,01,19,11,05,1.30
2011,01,19,11,06,1.30
2011,01,19,11,07,1.30
2011,01,19,11,08,1.40
2011,01,19,11,09,1.40
2011,01,19,11,10,1.50
2011,01,19,11,11,1.60
2011,01,19,11,12,1.70
2011,01,19,11,13,1.80
2011,01,19,11,14,1.90
2011,01,19,11,15,1.90
2011,01,19,11,16,2.00
2011,01,19,11,17,2.10
2011,01,19,11,18,2.10
2011,01,19,11,19,2.10
2011,01,19,11,20,2.10
2011,01,19,11,21,2.00
2011,01,19,11,22,2.00
2011,01,19,11,23,2.00
2011,01,19,11,24,1.90
2011,01,19,11,25,1.90
2011,01,19,11,26,1.90
2011,01,19,11,27,1.90
2011,01,19,11,28,1.90
2011,01,19,11,29,1.90
2011,01,19,11,30,1.90
2011,01,19,11,31,1.90
2011,01,19,11,32,1.90
2011,01,19,11,33,1.90
2011,01,19,11,34,1.80
2011,01,19,11,35,1.80
2011,01,19,11,36,1.80
2011,01,19,11,37,1.80
2011,01,19,11,38,1.80
2011,01,19,11,39,1.90
2011,01,19,11,40,2.00
2011,01,19,11,41,2.10
2011,01,19,11,42,2.20
2011,01,19,11,43,2.30
2011,01,19,11,44,2.40
2011,01,19,11,45,2.50
2011,01,19,11,46,2.60
2011,01,19,11,47,2.60
2011,01,19,11,48,2.70
2011,01,19,11,49,2.70
2011,01,19,11,50,2.70
2011,01,19,11,51,2.70
2011,01,19,11,52,2.80
2011,01,19,11,53,2.80
2011,01,19,11,54,2.90
2011,01,19,11,55,3.00
2011,01,19,11,56,3.10
2011,01,19,11,57,3.20
2011,01,19,11,58,3.20
2011,01,19,11,59,3.30
2011,01,19,12,00,3.30
2011,01,19,12,01,3.30
2011,01,19,12,02,3.40
2011,01,19,12,03,3.40
2011,01,19,12,04,3.40
2011,01,19,12,05,3.40
2011,01,19,12,06,3.40
2011,01,19,12,07,3.40
2011,01,19,12,08,3.30
2011,01,19,12,09,3.30
2011,01,19,12,10,3.30
2011,01,19,12,11,3.30
2011,01,19,12,12,3.30
2011,01,19,12,13,3.30
2011,01,19,12,14,3.40
2011,01,19,12,15,3.40
2011,01,19,12,16,3.50
2011,01,19,12,17,3.50
2011,01,19,12,18,3.60
2011,01,19,12,19,3.60
2011,01,19,12,20,3.60
2011,01,19,12,21,3.50
2011,01,19,12,22,3.50
2011,01,19,12,23,3.50
2011,01,19,12,24,3.60
2011,01,19,12,25,3.60
2011,01,19,12,26,3.70
2011,01,19,12,27,3.70
2011,01,19,12,28,3.70
2011,01,19,12,29,3.70
2011,01,19,12,30,3.70
2011,01,19,12,31,3.70
2011,01,19,12,32,3.60
2011,01,19,12,33,3.50
2011,01,19,12,34,3.40
2011,01,19,12,35,3.40
2011,01,19,12,36,3.40
2011,01,19,12,37,3.40
2011,01,19,12,38,3.40
2011,01,19,12,39,3.40
2011,01,19,12,40,3.40
2011,01,19,12,41,3.40
2011,01,19,12,42,3.30
2011,01,19,12,43,3.40
2011,01,19,12,44,3.30
2011,01,19,12,45,3.30
2011,01,19,12,46,3.20
2011,01,19,12,47,3.20
2011,01,19,12,48,3.20
2011,01,19,12,49,3.10
2011,01,19,12,50,3.10
2011,01,19,12,51,3.10
2011,01,19,12,52,3.20
2011,01,19,12,53,3.20
2011,01,19,12,54,3.20
2011,01,19,12,55,3.20
2011,01,19,12,56,3.30
2011,01,19,12,57,3.30
2011,01,19,12,58,3.30
2011,01,19,12,59,3.30
2011,01,19,13,00,3.40
2011,01,19,13,01,3.40
2011,01,19,13,02,3.40
2011,01,19,13,03,3.40
2011,01,19,13,04,3.40
2011,01,19,13,05,3.50
2011,01,19,13,06,3.50
2011,01,19,13,07,3.60
2011,01,19,13,08,3.60
2011,01,19,13,09,3.60
2011,01,19,13,10,3.70
2011,01,19,13,11,3.70
2011,01,19,13,12,3.70
2011,01,19,13,13,3.70
2011,01,19,13,14,3.70
2011,01,19,13,15,3.70
2011,01,19,13,16,3.80
2011,01,19,13,17,3.80
2011,01,19,13,18,3.90
2011,01,19,13,19,3.90
2011,01,19,13,20,3.90
2011,01,19,13,21,3.80
2011,01,19,13,22,3.80
2011,01,19,13,23,3.80
2011,01,19,13,24,3.70
2011,01,19,13,25,3.70
2011,01,19,13,26,3.80
2011,01,19,13,27,3.80
2011,01,19,13,28,3.80
2011,01,19,13,29,3.70
2011,01,19,13,30,3.70
2011,01,19,13,31,3.70
2011,01,19,13,32,3.70
2011,01,19,13,33,3.70
2011,01,19,13,34,3.70
2011,01,19,13,35,3.70
2011,01,19,13,36,3.70
2011,01,19,13,37,3.70
2011,01,19,13,38,3.70
2011,01,19,13,39,3.70
2011,01,19,13,40,3.70
2011,01,19,13,41,3.70
2011,01,19,13,42,3.70
2011,01,19,13,43,3.70
2011,01,19,13,44,3.70
2011,01,19,13,45,3.70
2011,01,19,13,46,3.60
2011,01,19,13,47,3.60
2011,01,19,13,48,3.70
2011,01,19,13,49,3.70
2011,01,19,13,50,3.70
2011,01,19,13,51,3.80
2011,01,19,13,52,3.80
2011,01,19,13,53,3.90
2011,01,19,13,54,4.00
2011,01,19,13,55,4.00
2011,01,19,13,56,4.10
2011,01,19,13,57,4.00
2011,01,19,13,58,4.00
2011,01,19,13,59,4.00
2011,01,19,14,00,3.90
2011,01,19,14,01,3.90
2011,01,19,14,02,3.90
2011,01,19,14,03,3.90
2011,01,19,14,04,3.90
2011,01,19,14,05,3.90
2011,01,19,14,06,4.00
2011,01,19,14,07,4.00
2011,01,19,14,08,4.10
2011,01,19,14,09,4.10
2011,01,19,14,10,4.10
2011,01,19,14,11,4.10
2011,01,19,14,12,4.20
2011,01,19,14,13,4.20
2011,01,19,14,14,4.20
2011,01,19,14,15,4.30
2011,01,19,14,16,4.30
2011,01,19,14,17,4.40
2011,01,19,14,18,4.40
2011,01,19,14,19,4.40
2011,01,19,14,20,4.40
2011,01,19,14,21,4.30
2011,01,19,14,22,4.30
2011,01,19,14,23,4.30
2011,01,19,14,24,4.30
2011,01,19,14,25,4.20
2011,01,19,14,26,4.20
2011,01,19,14,27,4.20
2011,01,19,14,28,4.20
2011,01,19,14,29,4.10
2011,01,19,14,30,4.10
2011,01,19,14,31,4.10
2011,01,19,14,32,4.10
2011,01,19,14,33,4.10
2011,01,19,14,34,4.10
2011,01,19,14,35,4.10
2011,01,19,14,36,4.10
2011,01,19,14,37,4.00
2011,01,19,14,38,3.90
2011,01,19,14,39,3.90
2011,01,19,14,40,3.90
2011,01,19,14,41,3.80
2011,01,19,14,42,3.80
2011,01,19,14,43,3.80
2011,01,19,14,44,3.80
2011,01,19,14,45,3.70
2011,01,19,14,46,3.70
2011,01,19,14,47,3.70
2011,01,19,14,48,3.70
2011,01,19,14,49,3.70
2011,01,19,14,50,3.70
2011,01,19,14,51,3.60
2011,01,19,14,52,3.60
2011,01,19,14,53,3.60
2011,01,19,14,54,3.60
2011,01,19,14,55,3.60
2011,01,19,14,56,3.60
2011,01,19,14,57,3.60
2011,01,19,14,58,3.50
2011,01,19,14,59,3.50
2011,01,19,15,00,3.50
2011,01,19,15,01,3.50
2011,01,19,15,02,3.40
2011,01,19,15,03,3.40
2011,01,19,15,04,3.40
2011,01,19,15,05,3.40
2011,01,19,15,06,3.40
2011,01,19,15,07,3.40
2011,01,19,15,08,3.30
2011,01,19,15,09,3.30
2011,01,19,15,10,3.30
2011,01,19,15,11,3.30
2011,01,19,15,12,3.30
2011,01,19,15,13,3.30
2011,01,19,15,14,3.30
2011,01,19,15,15,3.30
2011,01,19,15,16,3.30
2011,01,19,15,17,3.30
2011,01,19,15,18,3.30
2011,01,19,15,19,3.30
2011,01,19,15,20,3.30
2011,01,19,15,21,3.30
2011,01,19,15,22,3.30
2011,01,19,15,23,3.30
2011,01,19,15,24,3.30
2011,01,19,15,25,3.30
2011,01,19,15,26,3.30
2011,01,19,15,27,3.20
2011,01,19,15,28,3.20
2011,01,19,15,29,3.20
2011,01,19,15,30,3.20
2011,01,19,15,31,3.20
2011,01,19,15,32,3.20
2011,01,19,15,33,3.20
2011,01,19,15,34,3.20
2011,01,19,15,35,3.20
2011,01,19,15,36,3.10
2011,01,19,15,37,3.10
2011,01,19,15,38,3.10
2011,01,19,15,39,3.10
2011,01,19,15,40,3.10
2011,01,19,15,41,3.10
2011,01,19,15,42,3.10
2011,01,19,15,43,3.10
2011,01,19,15,44,3.10
2011,01,19,15,45,3.10
2011,01,19,15,46,3.10
2011,01,19,15,47,3.10
2011,01,19,15,48,3.00
2011,01,19,15,49,3.00
2011,01,19,15,50,3.00
2011,01,19,15,51,3.00
2011,01,19,15,52,3.00
2011,01,19,15,53,3.00
2011,01,19,15,54,3.00
2011,01,19,15,55,2.90
2011,01,19,15,56,2.90
2011,01,19,15,57,2.90
2011,01,19,15,58,2.90
2011,01,19,15,59,2.90
2011,01,19,16,00,2.80
2011,01,19,16,01,2.90
2011,01,19,16,02,2.80
2011,01,19,16,03,2.80
2011,01,19,16,04,2.80
2011,01,19,16,05,2.80
2011,01,19,16,06,2.80
2011,01,19,16,07,2.80
2011,01,19,16,08,2.80
2011,01,19,16,09,2.80
2011,01,19,16,10,2.80
2011,01,19,16,11,2.70
2011,01,19,16,12,2.70
2011,01,19,16,13,2.70
2011,01,19,16,14,2.70
2011,01,19,16,15,2.70
2011,01,19,16,16,2.70
2011,01,19,16,17,2.70
2011,01,19,16,18,2.70
2011,01,19,16,19,2.70
2011,01,19,16,20,2.70
2011,01,19,16,21,2.80
2011,01,19,16,22,2.80
2011,01,19,16,23,2.80
2011,01,19,16,24,2.70
2011,01,19,16,25,2.70
2011,01,19,16,26,2.70
2011,01,19,16,27,2.70
2011,01,19,16,28,2.70
2011,01,19,16,29,2.70
2011,01,19,16,30,2.70
2011,01,19,16,31,2.70
2011,01,19,16,32,2.70
2011,01,19,16,33,2.70
2011,01,19,16,34,2.70
2011,01,19,16,35,2.60
2011,01,19,16,36,2.60
2011,01,19,16,37,2.60
2011,01,19,16,38,2.50
2011,01,19,16,39,2.50
2011,01,19,16,40,2.40
2011,01,19,16,41,2.40
2011,01,19,16,42,2.40
2011,01,19,16,43,2.40
2011,01,19,16,44,2.30
2011,01,19,16,45,2.30
2011,01,19,16,46,2.30
2011,01,19,16,47,2.20
2011,01,19,16,48,2.20
2011,01,19,16,49,2.20
2011,01,19,16,50,2.10
2011,01,19,16,51,2.10
2011,01,19,16,52,2.10
2011,01,19,16,53,2.00
2011,01,19,16,54,2.00
2011,01,19,16,55,1.90
2011,01,19,16,56,1.90
2011,01,19,16,57,1.80
2011,01,19,16,58,1.80
2011,01,19,16,59,1.80
2011,01,19,17,00,1.80
2011,01,19,17,01,1.70
2011,01,19,17,02,1.70
2011,01,19,17,03,1.60
2011,01,19,17,04,1.60
2011,01,19,17,05,1.60
2011,01,19,17,06,1.50
2011,01,19,17,07,1.50
2011,01,19,17,08,1.40
2011,01,19,17,09,1.40
2011,01,19,17,10,1.40
2011,01,19,17,11,1.30
2011,01,19,17,12,1.30
2011,01,19,17,13,1.30
2011,01,19,17,14,1.30
2011,01,19,17,15,1.30
2011,01,19,17,16,1.30
2011,01,19,17,17,1.30
2011,01,19,17,18,1.30
2011,01,19,17,19,1.30
2011,01,19,17,20,1.30
2011,01,19,17,21,1.20
2011,01,19,17,22,1.20
2011,01,19,17,23,1.20
2011,01,19,17,24,1.20
2011,01,19,17,25,1.20
2011,01,19,17,26,1.10
2011,01,19,17,27,1.10
2011,01,19,17,28,1.10
2011,01,19,17,29,1.10
2011,01,19,17,30,1.10
2011,01,19,17,31,1.10
2011,01,19,17,32,1.10
2011,01,19,17,33,1.10
2011,01,19,17,34,1.10
2011,01,19,17,35,1.10
2011,01,19,17,36,1.00
2011,01,19,17,37,1.00
2011,01,19,17,38,1.00